Year,Month,Day,Hour,Minute,Value (Times are PST for temperature in C)
2015,09,20,00,00,17.90
2015,09,20,00,01,17.90
2015,09,20,00,02,17.90
2015,09,20,00,03,17.90
2015,09,20,00,04,18.00
2015,09,20,00,05,18.00
2015,09,20,00,06,18.00
2015,09,20,00,07,18.10
2015,09,20,00,08,18.10
2015,09,20,00,09,18.10
2015,09,20,00,10,18.10
2015,09,20,00,11,18.10
2015,09,20,00,12,18.10
2015,09,20,00,13,18.10
2015,09,20,00,14,18.10
2015,09,20,00,15,18.10
2015,09,20,00,16,18.10
2015,09,20,00,17,18.10
2015,09,20,00,18,18.20
2015,09,20,00,19,18.20
2015,09,20,00,20,18.20
2015,09,20,00,21,18.20
2015,09,20,00,22,18.20
2015,09,20,00,23,18.20
2015,09,20,00,24,18.20
2015,09,20,00,25,18.20
2015,09,20,00,26,18.20
2015,09,20,00,27,18.20
2015,09,20,00,28,18.20
2015,09,20,00,29,18.20
2015,09,20,00,30,18.20
2015,09,20,00,31,18.20
2015,09,20,00,32,18.20
2015,09,20,00,33,18.30
2015,09,20,00,34,18.30
2015,09,20,00,35,18.30
2015,09,20,00,36,18.30
2015,09,20,00,37,18.30
2015,09,20,00,38,18.30
2015,09,20,00,39,18.30
2015,09,20,00,40,18.30
2015,09,20,00,41,18.30
2015,09,20,00,42,18.30
2015,09,20,00,43,18.30
2015,09,20,00,44,18.30
2015,09,20,00,45,18.30
2015,09,20,00,46,18.30
2015,09,20,00,47,18.30
2015,09,20,00,48,18.30
2015,09,20,00,49,18.30
2015,09,20,00,50,18.30
2015,09,20,00,51,18.30
2015,09,20,00,52,18.30
2015,09,20,00,53,18.30
2015,09,20,00,54,18.30
2015,09,20,00,55,18.30
2015,09,20,00,56,18.30
2015,09,20,00,57,18.20
2015,09,20,00,58,18.20
2015,09,20,00,59,18.20
2015,09,20,01,00,18.20
2015,09,20,01,01,18.20
2015,09,20,01,02,18.20
2015,09,20,01,03,18.20
2015,09,20,01,04,18.20
2015,09,20,01,05,18.20
2015,09,20,01,06,18.10
2015,09,20,01,07,18.10
2015,09,20,01,08,18.10
2015,09,20,01,09,18.10
2015,09,20,01,10,18.10
2015,09,20,01,11,18.10
2015,09,20,01,12,18.10
2015,09,20,01,13,18.10
2015,09,20,01,14,18.10
2015,09,20,01,15,18.10
2015,09,20,01,16,18.10
2015,09,20,01,17,18.10
2015,09,20,01,18,18.10
2015,09,20,01,19,18.10
2015,09,20,01,20,18.10
2015,09,20,01,21,18.10
2015,09,20,01,22,18.10
2015,09,20,01,23,18.10
2015,09,20,01,24,18.10
2015,09,20,01,25,18.10
2015,09,20,01,26,18.10
2015,09,20,01,27,18.10
2015,09,20,01,28,18.10
2015,09,20,01,29,18.20
2015,09,20,01,30,18.20
2015,09,20,01,31,18.20
2015,09,20,01,32,18.20
2015,09,20,01,33,18.20
2015,09,20,01,34,18.20
2015,09,20,01,35,18.10
2015,09,20,01,36,18.10
2015,09,20,01,37,18.10
2015,09,20,01,38,18.10
2015,09,20,01,39,18.00
2015,09,20,01,40,18.00
2015,09,20,01,41,18.00
2015,09,20,01,42,18.00
2015,09,20,01,43,17.90
2015,09,20,01,44,17.90
2015,09,20,01,45,17.90
2015,09,20,01,46,17.90
2015,09,20,01,47,17.90
2015,09,20,01,48,17.80
2015,09,20,01,49,17.80
2015,09,20,01,50,17.80
2015,09,20,01,51,17.80
2015,09,20,01,52,17.80
2015,09,20,01,53,17.70
2015,09,20,01,54,17.70
2015,09,20,01,55,17.70
2015,09,20,01,56,17.70
2015,09,20,01,57,17.70
2015,09,20,01,58,17.70
2015,09,20,01,59,17.70
2015,09,20,02,00,17.70
2015,09,20,02,01,17.70
2015,09,20,02,02,17.60
2015,09,20,02,03,17.60
2015,09,20,02,04,17.60
2015,09,20,02,05,17.60
2015,09,20,02,06,17.60
2015,09,20,02,07,17.60
2015,09,20,02,08,17.60
2015,09,20,02,09,17.60
2015,09,20,02,10,17.60
2015,09,20,02,11,17.60
2015,09,20,02,12,17.60
2015,09,20,02,13,17.60
2015,09,20,02,14,17.60
2015,09,20,02,15,17.60
2015,09,20,02,16,17.60
2015,09,20,02,17,17.60
2015,09,20,02,18,17.60
2015,09,20,02,19,17.60
2015,09,20,02,20,17.60
2015,09,20,02,21,17.60
2015,09,20,02,22,17.60
2015,09,20,02,23,17.70
2015,09,20,02,24,17.70
2015,09,20,02,25,17.70
2015,09,20,02,26,17.70
2015,09,20,02,27,17.70
2015,09,20,02,28,17.70
2015,09,20,02,29,17.70
2015,09,20,02,30,17.70
2015,09,20,02,31,17.70
2015,09,20,02,32,17.70
2015,09,20,02,33,17.80
2015,09,20,02,34,17.80
2015,09,20,02,35,17.80
2015,09,20,02,36,17.80
2015,09,20,02,37,17.80
2015,09,20,02,38,17.80
2015,09,20,02,39,17.80
2015,09,20,02,40,17.80
2015,09,20,02,41,17.80
2015,09,20,02,42,17.80
2015,09,20,02,43,17.80
2015,09,20,02,44,17.80
2015,09,20,02,45,17.90
2015,09,20,02,46,17.90
2015,09,20,02,47,17.90
2015,09,20,02,48,17.90
2015,09,20,02,49,17.90
2015,09,20,02,50,17.90
2015,09,20,02,51,17.90
2015,09,20,02,52,17.90
2015,09,20,02,53,17.90
2015,09,20,02,54,18.00
2015,09,20,02,55,18.00
2015,09,20,02,56,18.10
2015,09,20,02,57,18.10
2015,09,20,02,58,18.10
2015,09,20,02,59,18.10
2015,09,20,03,00,18.10
2015,09,20,03,01,18.10
2015,09,20,03,02,18.10
2015,09,20,03,03,18.10
2015,09,20,03,04,18.10
2015,09,20,03,05,18.10
2015,09,20,03,06,18.10
2015,09,20,03,07,18.10
2015,09,20,03,08,18.10
2015,09,20,03,09,18.10
2015,09,20,03,10,18.10
2015,09,20,03,11,18.10
2015,09,20,03,12,18.10
2015,09,20,03,13,18.10
2015,09,20,03,14,18.10
2015,09,20,03,15,18.10
2015,09,20,03,16,18.10
2015,09,20,03,17,18.10
2015,09,20,03,18,18.10
2015,09,20,03,19,18.10
2015,09,20,03,20,18.10
2015,09,20,03,21,18.10
2015,09,20,03,22,18.10
2015,09,20,03,23,18.20
2015,09,20,03,24,18.20
2015,09,20,03,25,18.20
2015,09,20,03,26,18.20
2015,09,20,03,27,18.20
2015,09,20,03,28,18.20
2015,09,20,03,29,18.30
2015,09,20,03,30,18.30
2015,09,20,03,31,18.30
2015,09,20,03,32,18.30
2015,09,20,03,33,18.30
2015,09,20,03,34,18.30
2015,09,20,03,35,18.30
2015,09,20,03,36,18.30
2015,09,20,03,37,18.30
2015,09,20,03,38,18.20
2015,09,20,03,39,18.20
2015,09,20,03,40,18.20
2015,09,20,03,41,18.20
2015,09,20,03,42,18.20
2015,09,20,03,43,18.20
2015,09,20,03,44,18.20
2015,09,20,03,45,18.20
2015,09,20,03,46,18.20
2015,09,20,03,47,18.20
2015,09,20,03,48,18.20
2015,09,20,03,49,18.20
2015,09,20,03,50,18.20
2015,09,20,03,51,18.30
2015,09,20,03,52,18.30
2015,09,20,03,53,18.30
2015,09,20,03,54,18.30
2015,09,20,03,55,18.30
2015,09,20,03,56,18.30
2015,09,20,03,57,18.30
2015,09,20,03,58,18.30
2015,09,20,03,59,18.30
2015,09,20,04,00,18.30
2015,09,20,04,01,18.30
2015,09,20,04,02,18.20
2015,09,20,04,03,18.20
2015,09,20,04,04,18.20
2015,09,20,04,05,18.20
2015,09,20,04,06,18.30
2015,09,20,04,07,18.30
2015,09,20,04,08,18.30
2015,09,20,04,09,18.30
2015,09,20,04,10,18.30
2015,09,20,04,11,18.30
2015,09,20,04,12,18.30
2015,09,20,04,13,18.30
2015,09,20,04,14,18.30
2015,09,20,04,15,18.30
2015,09,20,04,16,18.40
2015,09,20,04,17,18.40
2015,09,20,04,18,18.40
2015,09,20,04,19,18.40
2015,09,20,04,20,18.40
2015,09,20,04,21,18.40
2015,09,20,04,22,18.40
2015,09,20,04,23,18.40
2015,09,20,04,24,18.40
2015,09,20,04,25,18.40
2015,09,20,04,26,18.40
2015,09,20,04,27,18.30
2015,09,20,04,28,18.30
2015,09,20,04,29,18.30
2015,09,20,04,30,18.30
2015,09,20,04,31,18.30
2015,09,20,04,32,18.30
2015,09,20,04,33,18.30
2015,09,20,04,34,18.30
2015,09,20,04,35,18.30
2015,09,20,04,36,18.30
2015,09,20,04,37,18.30
2015,09,20,04,38,18.30
2015,09,20,04,39,18.30
2015,09,20,04,40,18.30
2015,09,20,04,41,18.30
2015,09,20,04,42,18.30
2015,09,20,04,43,18.30
2015,09,20,04,44,18.30
2015,09,20,04,45,18.30
2015,09,20,04,46,18.40
2015,09,20,04,47,18.40
2015,09,20,04,48,18.40
2015,09,20,04,49,18.40
2015,09,20,04,50,18.40
2015,09,20,04,51,18.40
2015,09,20,04,52,18.40
2015,09,20,04,53,18.40
2015,09,20,04,54,18.40
2015,09,20,04,55,18.40
2015,09,20,04,56,18.40
2015,09,20,04,57,18.40
2015,09,20,04,58,18.40
2015,09,20,04,59,18.30
2015,09,20,05,00,18.30
2015,09,20,05,01,18.30
2015,09,20,05,02,18.30
2015,09,20,05,03,18.30
2015,09,20,05,04,18.30
2015,09,20,05,05,18.20
2015,09,20,05,06,18.20
2015,09,20,05,07,18.20
2015,09,20,05,08,18.20
2015,09,20,05,09,18.20
2015,09,20,05,10,18.20
2015,09,20,05,11,18.20
2015,09,20,05,12,18.20
2015,09,20,05,13,18.20
2015,09,20,05,14,18.20
2015,09,20,05,15,18.20
2015,09,20,05,16,18.20
2015,09,20,05,17,18.20
2015,09,20,05,18,18.20
2015,09,20,05,19,18.20
2015,09,20,05,20,18.20
2015,09,20,05,21,18.20
2015,09,20,05,22,18.20
2015,09,20,05,23,18.20
2015,09,20,05,24,18.20
2015,09,20,05,25,18.20
2015,09,20,05,26,18.20
2015,09,20,05,27,18.20
2015,09,20,05,28,18.30
2015,09,20,05,29,18.30
2015,09,20,05,30,18.30
2015,09,20,05,31,18.30
2015,09,20,05,32,18.30
2015,09,20,05,33,18.40
2015,09,20,05,34,18.40
2015,09,20,05,35,18.40
2015,09,20,05,36,18.50
2015,09,20,05,37,18.50
2015,09,20,05,38,18.50
2015,09,20,05,39,18.50
2015,09,20,05,40,18.50
2015,09,20,05,41,18.60
2015,09,20,05,42,18.60
2015,09,20,05,43,18.60
2015,09,20,05,44,18.60
2015,09,20,05,45,18.60
2015,09,20,05,46,18.60
2015,09,20,05,47,18.60
2015,09,20,05,48,18.60
2015,09,20,05,49,18.60
2015,09,20,05,50,18.60
2015,09,20,05,51,18.60
2015,09,20,05,52,18.60
2015,09,20,05,53,18.60
2015,09,20,05,54,18.60
2015,09,20,05,55,18.60
2015,09,20,05,56,18.60
2015,09,20,05,57,18.60
2015,09,20,05,58,18.60
2015,09,20,05,59,18.60
2015,09,20,06,00,18.60
2015,09,20,06,01,18.60
2015,09,20,06,02,18.60
2015,09,20,06,03,18.60
2015,09,20,06,04,18.60
2015,09,20,06,05,18.60
2015,09,20,06,06,18.60
2015,09,20,06,07,18.60
2015,09,20,06,08,18.60
2015,09,20,06,09,18.60
2015,09,20,06,10,18.70
2015,09,20,06,11,18.70
2015,09,20,06,12,18.70
2015,09,20,06,13,18.60
2015,09,20,06,14,18.60
2015,09,20,06,15,18.60
2015,09,20,06,16,18.60
2015,09,20,06,17,18.60
2015,09,20,06,18,18.60
2015,09,20,06,19,18.60
2015,09,20,06,20,18.50
2015,09,20,06,21,18.50
2015,09,20,06,22,18.40
2015,09,20,06,23,18.40
2015,09,20,06,24,18.40
2015,09,20,06,25,18.40
2015,09,20,06,26,18.30
2015,09,20,06,27,18.30
2015,09,20,06,28,18.30
2015,09,20,06,29,18.30
2015,09,20,06,30,18.20
2015,09,20,06,31,18.20
2015,09,20,06,32,18.20
2015,09,20,06,33,18.20
2015,09,20,06,34,18.20
2015,09,20,06,35,18.20
2015,09,20,06,36,18.20
2015,09,20,06,37,18.20
2015,09,20,06,38,18.20
2015,09,20,06,39,18.20
2015,09,20,06,40,18.20
2015,09,20,06,41,18.20
2015,09,20,06,42,18.20
2015,09,20,06,43,18.20
2015,09,20,06,44,18.20
2015,09,20,06,45,18.20
2015,09,20,06,46,18.20
2015,09,20,06,47,18.20
2015,09,20,06,48,18.20
2015,09,20,06,49,18.20
2015,09,20,06,50,18.20
2015,09,20,06,51,18.20
2015,09,20,06,52,18.20
2015,09,20,06,53,18.20
2015,09,20,06,54,18.20
2015,09,20,06,55,18.20
2015,09,20,06,56,18.20
2015,09,20,06,57,18.20
2015,09,20,06,58,18.20
2015,09,20,06,59,18.20
2015,09,20,07,00,18.20
2015,09,20,07,01,18.20
2015,09,20,07,02,18.20
2015,09,20,07,03,18.20
2015,09,20,07,04,18.20
2015,09,20,07,05,18.20
2015,09,20,07,06,18.30
2015,09,20,07,07,18.30
2015,09,20,07,08,18.30
2015,09,20,07,09,18.30
2015,09,20,07,10,18.30
2015,09,20,07,11,18.30
2015,09,20,07,12,18.30
2015,09,20,07,13,18.30
2015,09,20,07,14,18.40
2015,09,20,07,15,18.40
2015,09,20,07,16,18.40
2015,09,20,07,17,18.40
2015,09,20,07,18,18.40
2015,09,20,07,19,18.50
2015,09,20,07,20,18.50
2015,09,20,07,21,18.50
2015,09,20,07,22,18.50
2015,09,20,07,23,18.50
2015,09,20,07,24,18.50
2015,09,20,07,25,18.60
2015,09,20,07,26,18.60
2015,09,20,07,27,18.60
2015,09,20,07,28,18.60
2015,09,20,07,29,18.60
2015,09,20,07,30,18.60
2015,09,20,07,31,18.60
2015,09,20,07,32,18.60
2015,09,20,07,33,18.60
2015,09,20,07,34,18.60
2015,09,20,07,35,18.60
2015,09,20,07,36,18.60
2015,09,20,07,37,18.60
2015,09,20,07,38,18.60
2015,09,20,07,39,18.60
2015,09,20,07,40,18.60
2015,09,20,07,41,18.60
2015,09,20,07,42,18.60
2015,09,20,07,43,18.50
2015,09,20,07,44,18.50
2015,09,20,07,45,18.40
2015,09,20,07,46,18.40
2015,09,20,07,47,18.40
2015,09,20,07,48,18.30
2015,09,20,07,49,18.30
2015,09,20,07,50,18.30
2015,09,20,07,51,18.20
2015,09,20,07,52,18.20
2015,09,20,07,53,18.20
2015,09,20,07,54,18.10
2015,09,20,07,55,18.10
2015,09,20,07,56,18.10
2015,09,20,07,57,18.00
2015,09,20,07,58,17.90
2015,09,20,07,59,17.90
2015,09,20,08,00,17.90
2015,09,20,08,01,17.90
2015,09,20,08,02,17.80
2015,09,20,08,03,17.80
2015,09,20,08,04,17.80
2015,09,20,08,05,17.80
2015,09,20,08,06,17.80
2015,09,20,08,07,17.70
2015,09,20,08,08,17.70
2015,09,20,08,09,17.70
2015,09,20,08,10,17.70
2015,09,20,08,11,17.70
2015,09,20,08,12,17.70
2015,09,20,08,13,17.70
2015,09,20,08,14,17.60
2015,09,20,08,15,17.60
2015,09,20,08,16,17.60
2015,09,20,08,17,17.60
2015,09,20,08,18,17.60
2015,09,20,08,19,17.60
2015,09,20,08,20,17.60
2015,09,20,08,21,17.60
2015,09,20,08,22,17.60
2015,09,20,08,23,17.60
2015,09,20,08,24,17.60
2015,09,20,08,25,17.60
2015,09,20,08,26,17.60
2015,09,20,08,27,17.60
2015,09,20,08,28,17.60
2015,09,20,08,29,17.60
2015,09,20,08,30,17.60
2015,09,20,08,31,17.60
2015,09,20,08,32,17.60
2015,09,20,08,33,17.60
2015,09,20,08,34,17.70
2015,09,20,08,35,17.70
2015,09,20,08,36,17.70
2015,09,20,08,37,17.70
2015,09,20,08,38,17.70
2015,09,20,08,39,17.70
2015,09,20,08,40,17.70
2015,09,20,08,41,17.70
2015,09,20,08,42,17.70
2015,09,20,08,43,17.70
2015,09,20,08,44,17.70
2015,09,20,08,45,17.70
2015,09,20,08,46,17.80
2015,09,20,08,47,17.80
2015,09,20,08,48,17.80
2015,09,20,08,49,17.80
2015,09,20,08,50,17.80
2015,09,20,08,51,17.80
2015,09,20,08,52,17.90
2015,09,20,08,53,17.90
2015,09,20,08,54,17.90
2015,09,20,08,55,17.90
2015,09,20,08,56,18.00
2015,09,20,08,57,18.00
2015,09,20,08,58,18.10
2015,09,20,08,59,18.10
2015,09,20,09,00,18.10
2015,09,20,09,01,18.10
2015,09,20,09,02,18.20
2015,09,20,09,03,18.20
2015,09,20,09,04,18.20
2015,09,20,09,05,18.20
2015,09,20,09,06,18.20
2015,09,20,09,07,18.30
2015,09,20,09,08,18.30
2015,09,20,09,09,18.30
2015,09,20,09,10,18.30
2015,09,20,09,11,18.30
2015,09,20,09,12,18.30
2015,09,20,09,13,18.30
2015,09,20,09,14,18.30
2015,09,20,09,15,18.20
2015,09,20,09,16,18.20
2015,09,20,09,17,18.20
2015,09,20,09,18,18.20
2015,09,20,09,19,18.20
2015,09,20,09,20,18.20
2015,09,20,09,21,18.20
2015,09,20,09,22,18.20
2015,09,20,09,23,18.20
2015,09,20,09,24,18.20
2015,09,20,09,25,18.20
2015,09,20,09,26,18.20
2015,09,20,09,27,18.20
2015,09,20,09,28,18.20
2015,09,20,09,29,18.20
2015,09,20,09,30,18.20
2015,09,20,09,31,18.20
2015,09,20,10,22,18.70
2015,09,20,10,23,18.70
2015,09,20,10,24,18.80
2015,09,20,10,25,18.80
2015,09,20,10,26,18.80
2015,09,20,10,27,18.80
2015,09,20,10,28,18.80
2015,09,20,10,29,18.90
2015,09,20,10,30,18.90
2015,09,20,10,31,18.90
2015,09,20,10,32,18.90
2015,09,20,10,33,18.90
2015,09,20,10,34,18.90
2015,09,20,10,35,19.00
2015,09,20,10,36,19.00
2015,09,20,10,37,19.00
2015,09,20,10,38,19.00
2015,09,20,10,39,19.00
2015,09,20,10,40,19.00
2015,09,20,10,41,19.00
2015,09,20,10,42,19.00
2015,09,20,10,43,19.00
2015,09,20,10,44,19.00
2015,09,20,10,45,19.00
2015,09,20,10,46,19.00
2015,09,20,10,47,19.00
2015,09,20,10,48,19.00
2015,09,20,10,49,19.00
2015,09,20,10,50,19.00
2015,09,20,10,51,19.00
2015,09,20,10,52,19.00
2015,09,20,10,53,19.00
2015,09,20,10,54,19.00
2015,09,20,10,55,19.00
2015,09,20,10,56,19.00
2015,09,20,10,57,19.00
2015,09,20,10,58,19.00
2015,09,20,10,59,19.00
2015,09,20,11,00,19.00
2015,09,20,11,01,19.00
2015,09,20,11,02,19.00
2015,09,20,11,03,19.00
2015,09,20,11,04,19.00
2015,09,20,11,05,19.00
2015,09,20,11,06,19.00
2015,09,20,11,07,19.00
2015,09,20,11,08,19.00
2015,09,20,11,09,19.00
2015,09,20,11,10,19.00
2015,09,20,11,11,19.00
2015,09,20,11,12,19.00
2015,09,20,11,13,19.00
2015,09,20,11,14,19.00
2015,09,20,11,15,19.00
2015,09,20,11,16,18.90
2015,09,20,11,17,18.90
2015,09,20,11,18,18.90
2015,09,20,11,19,18.90
2015,09,20,11,20,18.90
2015,09,20,11,21,18.90
2015,09,20,11,22,19.00
2015,09,20,11,23,19.00
2015,09,20,11,24,19.00
2015,09,20,11,25,19.10
2015,09,20,11,26,19.10
2015,09,20,11,27,19.10
2015,09,20,11,28,19.10
2015,09,20,11,29,19.20
2015,09,20,11,30,19.20
2015,09,20,11,31,19.20
2015,09,20,11,32,19.20
2015,09,20,11,33,19.30
2015,09,20,11,34,19.30
2015,09,20,11,35,19.30
2015,09,20,11,36,19.30
2015,09,20,11,37,19.30
2015,09,20,11,38,19.30
2015,09,20,11,39,19.30
2015,09,20,11,40,19.40
2015,09,20,11,41,19.40
2015,09,20,11,42,19.50
2015,09,20,11,43,19.60
2015,09,20,11,44,19.60
2015,09,20,11,45,19.60
2015,09,20,11,46,19.70
2015,09,20,11,47,19.70
2015,09,20,11,48,19.70
2015,09,20,11,49,19.70
2015,09,20,11,50,19.80
2015,09,20,11,51,19.80
2015,09,20,11,52,19.80
2015,09,20,11,53,19.80
2015,09,20,11,54,19.80
2015,09,20,11,55,19.80
2015,09,20,11,56,19.80
2015,09,20,11,57,19.90
2015,09,20,11,58,20.00
2015,09,20,11,59,20.10
2015,09,20,12,00,20.10
2015,09,20,12,01,20.10
2015,09,20,12,02,20.10
2015,09,20,12,03,20.10
2015,09,20,12,04,20.20
2015,09,20,12,05,20.20
2015,09,20,12,06,20.20
2015,09,20,12,07,20.30
2015,09,20,12,08,20.30
2015,09,20,12,09,20.20
2015,09,20,12,10,20.20
2015,09,20,12,11,20.20
2015,09,20,12,12,20.20
2015,09,20,12,13,20.20
2015,09,20,12,14,20.20
2015,09,20,12,15,20.10
2015,09,20,12,16,20.10
2015,09,20,12,17,20.10
2015,09,20,12,18,20.10
2015,09,20,12,19,20.10
2015,09,20,12,20,20.00
2015,09,20,12,21,20.00
2015,09,20,12,22,19.90
2015,09,20,12,23,19.90
2015,09,20,12,24,19.90
2015,09,20,12,25,19.90
2015,09,20,12,26,19.90
2015,09,20,12,27,19.90
2015,09,20,12,28,19.90
2015,09,20,12,29,19.90
2015,09,20,12,30,19.90
2015,09,20,12,31,19.90
2015,09,20,12,32,19.80
2015,09,20,12,33,19.80
2015,09,20,12,34,19.80
2015,09,20,12,35,19.70
2015,09,20,12,36,19.70
2015,09,20,12,37,19.60
2015,09,20,12,38,19.50
2015,09,20,12,39,19.50
2015,09,20,12,40,19.40
2015,09,20,12,41,19.30
2015,09,20,12,42,19.30
2015,09,20,12,43,19.20
2015,09,20,12,44,19.10
2015,09,20,12,45,19.10
2015,09,20,12,46,19.00
2015,09,20,12,47,19.00
2015,09,20,12,48,18.90
2015,09,20,12,49,18.90
2015,09,20,12,50,18.90
2015,09,20,12,51,18.80
2015,09,20,12,52,18.80
2015,09,20,12,53,18.80
2015,09,20,12,54,18.80
2015,09,20,12,55,18.80
2015,09,20,12,56,18.80
2015,09,20,12,57,18.80
2015,09,20,12,58,18.80
2015,09,20,12,59,18.80
2015,09,20,13,00,18.80
2015,09,20,13,01,18.80
2015,09,20,13,02,18.80
2015,09,20,13,03,18.80
2015,09,20,13,04,18.80
2015,09,20,13,05,18.80
2015,09,20,13,06,18.70
2015,09,20,13,07,18.70
2015,09,20,13,08,18.70
2015,09,20,13,09,18.70
2015,09,20,13,10,18.70
2015,09,20,13,11,18.60
2015,09,20,13,12,18.60
2015,09,20,13,13,18.60
2015,09,20,13,14,18.60
2015,09,20,13,15,18.60
2015,09,20,13,16,18.60
2015,09,20,13,17,18.60
2015,09,20,13,18,18.60
2015,09,20,13,19,18.60
2015,09,20,13,20,18.60
2015,09,20,13,21,18.50
2015,09,20,13,22,18.50
2015,09,20,13,23,18.50
2015,09,20,13,24,18.40
2015,09,20,13,25,18.40
2015,09,20,13,26,18.40
2015,09,20,13,27,18.40
2015,09,20,13,28,18.40
2015,09,20,13,29,18.40
2015,09,20,13,30,18.40
2015,09,20,13,31,18.40
2015,09,20,13,32,18.30
2015,09,20,13,33,18.30
2015,09,20,13,34,18.30
2015,09,20,13,35,18.30
2015,09,20,13,36,18.30
2015,09,20,13,37,18.30
2015,09,20,13,38,18.30
2015,09,20,13,39,18.30
2015,09,20,13,40,18.30
2015,09,20,13,41,18.30
2015,09,20,13,42,18.20
2015,09,20,13,43,18.20
2015,09,20,13,44,18.30
2015,09,20,13,45,18.20
2015,09,20,13,46,18.20
2015,09,20,13,47,18.20
2015,09,20,13,48,18.20
2015,09,20,13,49,18.20
2015,09,20,13,50,18.30
2015,09,20,13,51,18.20
2015,09,20,13,52,18.20
2015,09,20,13,53,18.20
2015,09,20,13,54,18.20
2015,09,20,13,55,18.20
2015,09,20,13,56,18.20
2015,09,20,13,57,18.20
2015,09,20,13,58,18.20
2015,09,20,13,59,18.20
2015,09,20,14,00,18.20
2015,09,20,14,01,18.10
2015,09,20,14,02,18.10
2015,09,20,14,03,18.10
2015,09,20,14,04,18.10
2015,09,20,14,05,18.10
2015,09,20,14,06,18.10
2015,09,20,14,07,18.10
2015,09,20,14,08,18.00
2015,09,20,14,09,17.90
2015,09,20,14,10,17.90
2015,09,20,14,11,17.90
2015,09,20,14,12,17.80
2015,09,20,14,13,17.80
2015,09,20,14,14,17.80
2015,09,20,14,15,17.70
2015,09,20,14,16,17.70
2015,09,20,14,17,17.60
2015,09,20,14,18,17.60
2015,09,20,14,19,17.60
2015,09,20,14,20,17.50
2015,09,20,14,21,17.50
2015,09,20,14,22,17.40
2015,09,20,14,23,17.40
2015,09,20,14,24,17.30
2015,09,20,14,25,17.30
2015,09,20,14,26,17.20
2015,09,20,14,27,17.20
2015,09,20,14,28,17.10
2015,09,20,14,29,17.00
2015,09,20,14,30,17.00
2015,09,20,14,31,16.90
2015,09,20,14,32,16.90
2015,09,20,14,33,16.80
2015,09,20,14,34,16.70
2015,09,20,14,35,16.70
2015,09,20,14,36,16.60
2015,09,20,14,37,16.50
2015,09,20,14,38,16.40
2015,09,20,14,39,16.30
2015,09,20,14,40,16.30
2015,09,20,14,41,16.20
2015,09,20,14,42,16.20
2015,09,20,14,43,16.10
2015,09,20,14,44,16.10
2015,09,20,14,45,16.10
2015,09,20,14,46,16.00
2015,09,20,14,47,16.00
2015,09,20,14,48,16.00
2015,09,20,14,49,16.00
2015,09,20,14,50,16.10
2015,09,20,14,51,16.10
2015,09,20,14,52,16.10
2015,09,20,14,53,16.10
2015,09,20,14,54,16.10
2015,09,20,14,55,16.10
2015,09,20,14,56,16.10
2015,09,20,14,57,16.10
2015,09,20,14,58,16.00
2015,09,20,14,59,16.00
2015,09,20,15,00,15.90
2015,09,20,15,01,15.90
2015,09,20,15,02,15.80
2015,09,20,15,03,15.80
2015,09,20,15,04,15.80
2015,09,20,15,05,15.80
2015,09,20,15,06,15.80
2015,09,20,15,07,15.80
2015,09,20,15,08,15.80
2015,09,20,15,09,15.80
2015,09,20,15,10,15.80
2015,09,20,15,11,15.70
2015,09,20,15,12,15.70
2015,09,20,15,13,15.80
2015,09,20,15,14,15.80
2015,09,20,15,15,15.80
2015,09,20,15,16,15.80
2015,09,20,15,17,15.80
2015,09,20,15,18,15.80
2015,09,20,15,19,15.80
2015,09,20,15,20,15.80
2015,09,20,15,21,15.80
2015,09,20,15,22,15.90
2015,09,20,15,23,15.90
2015,09,20,15,24,15.90
2015,09,20,15,25,15.90
2015,09,20,15,26,15.90
2015,09,20,15,27,15.90
2015,09,20,15,28,16.00
2015,09,20,15,29,16.00
2015,09,20,15,30,16.00
2015,09,20,15,31,16.00
2015,09,20,15,32,16.10
2015,09,20,15,33,16.10
2015,09,20,15,34,16.10
2015,09,20,15,35,16.10
2015,09,20,15,36,16.10
2015,09,20,15,37,16.00
2015,09,20,15,38,16.00
2015,09,20,15,39,16.00
2015,09,20,15,40,16.00
2015,09,20,15,41,16.00
2015,09,20,15,42,16.00
2015,09,20,15,43,15.90
2015,09,20,15,44,15.90
2015,09,20,15,45,15.80
2015,09,20,15,46,15.80
2015,09,20,15,47,15.70
2015,09,20,15,48,15.70
2015,09,20,15,49,15.70
2015,09,20,15,50,15.60
2015,09,20,15,51,15.60
2015,09,20,15,52,15.50
2015,09,20,15,53,15.50
2015,09,20,15,54,15.50
2015,09,20,15,55,15.50
2015,09,20,15,56,15.40
2015,09,20,15,57,15.40
2015,09,20,15,58,15.40
2015,09,20,15,59,15.40
2015,09,20,16,00,15.40
2015,09,20,16,01,15.40
2015,09,20,16,02,15.40
2015,09,20,16,03,15.40
2015,09,20,16,04,15.40
2015,09,20,16,05,15.40
2015,09,20,16,06,15.40
2015,09,20,16,07,15.50
2015,09,20,16,08,15.50
2015,09,20,16,09,15.50
2015,09,20,16,10,15.60
2015,09,20,16,11,15.60
2015,09,20,16,12,15.60
2015,09,20,16,13,15.60
2015,09,20,16,14,15.70
2015,09,20,16,15,15.70
2015,09,20,16,16,15.70
2015,09,20,16,17,15.70
2015,09,20,16,18,15.70
2015,09,20,16,19,15.80
2015,09,20,16,20,15.80
2015,09,20,16,21,15.80
2015,09,20,16,22,15.80
2015,09,20,16,23,15.80
2015,09,20,16,24,15.80
2015,09,20,16,25,15.80
2015,09,20,16,26,15.90
2015,09,20,16,27,15.90
2015,09,20,16,28,15.90
2015,09,20,16,29,15.90
2015,09,20,16,30,15.90
2015,09,20,16,31,16.00
2015,09,20,16,32,16.00
2015,09,20,16,33,16.00
2015,09,20,16,34,16.10
2015,09,20,16,35,16.10
2015,09,20,16,36,16.10
2015,09,20,16,37,16.10
2015,09,20,16,38,16.10
2015,09,20,16,39,16.20
2015,09,20,16,40,16.20
2015,09,20,16,41,16.10
2015,09,20,16,42,16.10
2015,09,20,16,43,16.00
2015,09,20,16,44,16.00
2015,09,20,16,45,15.90
2015,09,20,16,46,15.90
2015,09,20,16,47,15.80
2015,09,20,16,48,15.80
2015,09,20,16,49,15.80
2015,09,20,16,50,15.70
2015,09,20,16,51,15.70
2015,09,20,16,52,15.70
2015,09,20,16,53,15.60
2015,09,20,16,54,15.60
2015,09,20,16,55,15.50
2015,09,20,16,56,15.40
2015,09,20,16,57,15.40
2015,09,20,16,58,15.30
2015,09,20,16,59,15.30
2015,09,20,17,00,15.20
2015,09,20,17,01,15.20
2015,09,20,17,02,15.20
2015,09,20,17,03,15.20
2015,09,20,17,04,15.10
2015,09,20,17,05,15.10
2015,09,20,17,06,15.10
2015,09,20,17,07,15.10
2015,09,20,17,08,15.10
2015,09,20,17,09,15.10
2015,09,20,17,10,15.10
2015,09,20,17,11,15.00
2015,09,20,17,12,15.00
2015,09,20,17,13,15.00
2015,09,20,17,14,14.90
2015,09,20,17,15,14.90
2015,09,20,17,16,14.90
2015,09,20,17,17,14.80
2015,09,20,17,18,14.80
2015,09,20,17,19,14.80
2015,09,20,17,20,14.80
2015,09,20,17,21,14.80
2015,09,20,17,22,14.80
2015,09,20,17,23,14.80
2015,09,20,17,24,14.80
2015,09,20,17,25,14.80
2015,09,20,17,26,14.80
2015,09,20,17,27,14.80
2015,09,20,17,28,14.80
2015,09,20,17,29,14.80
2015,09,20,17,30,14.80
2015,09,20,17,31,14.80
2015,09,20,17,32,14.80
2015,09,20,17,33,14.80
2015,09,20,17,34,14.90
2015,09,20,17,35,14.90
2015,09,20,17,36,14.90
2015,09,20,17,37,14.90
2015,09,20,17,38,14.90
2015,09,20,17,39,14.90
2015,09,20,17,40,14.90
2015,09,20,17,41,14.90
2015,09,20,17,42,14.90
2015,09,20,17,43,14.90
2015,09,20,17,44,14.90
2015,09,20,17,45,14.90
2015,09,20,17,46,14.90
2015,09,20,17,47,14.90
2015,09,20,17,48,14.90
2015,09,20,17,49,14.90
2015,09,20,17,50,14.90
2015,09,20,17,51,14.90
2015,09,20,17,52,14.90
2015,09,20,17,53,14.80
2015,09,20,17,54,14.80
2015,09,20,17,55,14.80
2015,09,20,17,56,14.80
2015,09,20,17,57,14.80
2015,09,20,17,58,14.70
2015,09,20,17,59,14.70
2015,09,20,18,00,14.60
2015,09,20,18,01,14.60
2015,09,20,18,02,14.60
2015,09,20,18,03,14.60
2015,09,20,18,04,14.50
2015,09,20,18,05,14.50
2015,09,20,18,06,14.50
2015,09,20,18,07,14.50
2015,09,20,18,08,14.50
2015,09,20,18,09,14.40